Weather Roundup
Issued by NWS

Home | Current Version | Previous Version | Text Only | Print | Product List | Glossary On
Versions: 1 2 3 4 5 6 7 8 9 10 11 12 13 14 15 16 17 18 19 20 21 22 23 24 25 26 27 28 29 30 31 32 33 34 35 36 37 38 39 40 41 42 43 44 45 46 47 48 49 50
000
NZUS93 KARX 280410
HRRWXR

CURRENT HOURLY OBSERVATIONS ACROSS
MUCH OF THE UPPER MISSISSIPPI VALLEY
NATIONAL WEATHER SERVICE LA CROSSE WI
1100 PM CDT MON JUL 27 2015


...SOUTHEAST MINNESOTA...


CITY           SKY/WX    TMP DP  RH WIND       PRES   REMARKS
ROCHESTER      CLEAR     72  70  93 SE8       29.97S
ROCHESTER/MAYO FAIR      74  71  88 SE9       29.96S
WINONA         CLEAR     73  68  83 CALM      29.95F
AUSTIN         CLEAR     75  72  88 SE5       29.95S
ALBERT LEA     CLEAR     75  73  94 SE10      29.94S
DODGE CENTER   CLEAR     73  70  88 SE8       29.96S
PRESTON        CLEAR     72  68  87 SE5       29.98F
OWATONNA       CLEAR     75  70  83 SE12      29.94R
FARIBAULT      CLEAR     75  72  88 SE12      29.93R
$$

...ELSEWHERE IN MINNESOTA...


CITY           SKY/WX    TMP DP  RH WIND       PRES   REMARKS
MINNEAPOLIS    PTCLDY    78  71  79 SE8       29.91S
INTNL FALLS    CLEAR     75  66  73 S6        29.90R
DULUTH         PTCLDY    70  63  78 SE5       29.96S
RED WING       CLEAR     79  70  73 SE7       29.92S
REDWOOD FALLS  CLEAR     75  68  78 S12       29.87R
MANKATO        CLEAR     75  70  83 SE10      29.91R
WORTHINGTON    MOCLDY    73  64  73 SE12G18   29.88S
FAIRMONT       CLEAR     73  63  68 SE13      29.91R
$$

...SOUTHWEST WISCONSIN...


CITY           SKY/WX    TMP DP  RH WIND       PRES   REMARKS
LA CROSSE      CLEAR     76  70  82 E7        29.95S
PRAIRIE DU CHI MOCLDY    75  69  80 E6        29.95F
BOSCOBEL       MOCLDY    72  70  93 CALM      29.98S
LONE ROCK      MOCLDY    72  66  81 E6        30.00R
PLATTEVILLE    MOCLDY    74  71  92 E7        29.99F
FORT MC COY    CLEAR     71  67  89 E3        29.99S
CAMP DOUGLAS   PTCLDY    70  70 100 CALM      29.99S
VIROQUA        FAIR      70  70 100 SE5       30.01R
WIS DELLS      PTCLDY    73  62  69 SE6       30.01S
$$

...ELSEWHERE IN WISCONSIN...


CITY           SKY/WX    TMP DP  RH WIND       PRES   REMARKS
MILWAUKEE      MOCLDY    72  66  81 SE3       30.03R
MADISON        PTCLDY    75  64  68 SE8       30.01R
GREEN BAY      CLEAR     65  62  90 CALM      30.02R
EAU CLAIRE     CLEAR     77  68  73 SE7       29.95S
BLACK RVR FLS  FAIR      67  66  98 CALM      29.98S
MEDFORD        CLEAR     69  63  81 SE5       30.02S
WAUSAU         CLEAR     72  65  78 E3        30.01S
WIS RAPIDS     CLEAR     74  61  63 SE6       30.02S
MARSHFIELD     CLEAR     72  62  71 SE6       30.01S
RICE LAKE      CLEAR     73  66  78 E5        29.98S
$$

...NORTHEAST IOWA...


CITY           SKY/WX    TMP DP  RH WIND       PRES   REMARKS
DECORAH        CLEAR     72  70  94 SE5       29.97S
MASON CITY     PTCLDY    71  70  96 SE6       29.96S
CHARLES CITY   PTCLDY    73  73 100 SE7       29.96S
OELWEIN        CLEAR     73  72  94 SE7       29.97S
$$

...ELSEWHERE IN IOWA...


CITY           SKY/WX    TMP DP  RH WIND       PRES   REMARKS
DES MOINES     PTCLDY    74  69  85 SE8       29.91S
IOWA CITY      MOCLDY    73  72  96 CALM      29.95F
FORT DODGE     CLEAR     70  64  83 SE5       29.93R
$$

...NORTHERN ILLINOIS...


CITY           SKY/WX    TMP DP  RH WIND       PRES   REMARKS
CHICAGO-OHARE  MOCLDY    74  65  73 E6        30.02R
CHICAGO-MIDWAY CLOUDY    78  66  66 E7        30.02R
MOLINE         CLOUDY    75  72  90 E7        29.94F
ROCKFORD       MOCLDY    74  64  71 SE7       30.01F
PEORIA         CLOUDY    80  72  76 E6        29.95F
$$

NOTE: "FAIR" INDICATES FEW OR NO CLOUDS BELOW 12,000 FEET WITH NO
SIGNIFICANT WEATHER AND/OR OBSTRUCTIONS TO VISIBILITY. WIND
SPEEDS ARE IN MILES-PER-HOUR.



USA.gov is the U.S. government's official web portal to all federal, state and local government web resources and services.